Location: Newark
(47.7394°N, 8.0008°E)
Time: 19:07:09
(UTC+00:00)

N. Korean satellite - Pass Details

Date: 14 December 2019
Orbit: 454 x 507 km, 97.2° (Epoch: 28 January)

Event Time Altitude Azimuth Distance (km) Brightness Sun altitude
Rises 17:02:55 0° 190° (S) 2,597 10.7 -13.8°
Reaches altitude 10° 17:05:11 10° 201° (SSW) 1,714 9.9 -14.2°
Maximum altitude 17:08:28 30° 264° (W) 927 8.8 -14.7°
Drops below altitude 10° 17:11:45 10° 327° (NNW) 1,709 9.5 -15.2°
Sets 17:14:01 0° 338° (NNW) 2,590 10.3 -15.6°
